Chanute, KS

6:49 AM CST on November 17, 2019 (GMT -0600)
Chanute Martin Johnson

Weather History for KCNU - November, 2019

Change the Weather History Date:

Saturday, November 9, 2019

  Actual Average Record
Temperature  
Mean Temperature 51 °F 50 °F  
Max Temperature 66 °F 60 °F 82 °F (2006)
Min Temperature 36 °F 39 °F 19 °F (2018)
Degree Days  
Heating Degree Days 14 16  
Month to date heating degree days 174 125  
Since 1 July heating degree days 481 413  
Cooling Degree Days 0 0  
Month to date cooling degree days 0 0  
Year to date cooling degree days 1867 1529  
Growing Degree Days 2 (Base 50)    
Moisture  
Dew Point 37 °F    
Average Humidity 61    
Maximum Humidity 82    
Minimum Humidity 40    
Precipitation  
Precipitation 0.00 in 0.09 in 1.80 in (1935)
Month to date precipitation 0.00 0.80  
Year to date precipitation 54.79 38.62  
Sea Level Pressure  
Sea Level Pressure 30.08 in    
Wind  
Wind Speed 10 mph (SSW)    
Max Wind Speed 15 mph    
Max Gust Speed 22 mph    
Visibility 10 miles    
Events      
T = Trace of Precipitation, MM = Missing Value Source: NWS Daily Summary

Daily Weather History Graph

Daily Weather History Graph

Search for Another Location

Airport or City:

Astronomy

Nov. 09, 2019 Rise Set
Actual Time 6:55 AM CST 5:15 PM CST
Civil Twilight 6:27 AM CST 5:43 PM CST
Nautical Twilight 5:56 AM CST 6:14 PM CST
Astronomical Twilight 5:25 AM CST 6:45 PM CST
Moon 4:12 PM CST (11/9) 3:56 AM CST (11/9)
Length of Visible Light 11h 15m
Length of Day
10h 20m
Waxing Gibbous, 92% of the Moon is Illuminated
Nov 9
Waxing Gibbous
Nov 12
Full
Nov 19
Last Quarter
Nov 26
New
Dec 4
First Quarter

Hourly Weather History & Observations

Time (CST) Temp. Windchill Dew Point Humidity Pressure Visibility Wind Dir Wind Speed Gust Speed Precip Events Conditions
12:52 AM 37.9 °F 31.5 °F 27.0 °F 65% 30.21 in 10.0 mi SSW 9.2 mph - N/A   Clear
1:52 AM 39.0 °F 32.3 °F 27.0 °F 62% 30.19 in 10.0 mi SSW 10.4 mph - N/A   Clear
2:52 AM 39.0 °F 31.8 °F 28.0 °F 65% 30.16 in 10.0 mi SSW 11.5 mph - N/A   Clear
3:52 AM 37.9 °F 31.5 °F 28.0 °F 68% 30.14 in 10.0 mi SSW 9.2 mph - N/A   Clear
4:52 AM 37.0 °F 30.4 °F 28.9 °F 73% 30.14 in 10.0 mi SSW 9.2 mph - N/A   Clear
5:52 AM 37.0 °F 31.0 °F 28.9 °F 73% 30.14 in 10.0 mi SSW 8.1 mph - N/A   Clear
7:52 AM 39.0 °F 32.8 °F 32.0 °F 76% 30.14 in 10.0 mi SSW 9.2 mph - N/A   Clear
8:52 AM 44.1 °F 38.1 °F 34.0 °F 68% 30.14 in 10.0 mi SW 11.5 mph - N/A   Clear
9:52 AM 48.0 °F - 35.1 °F 61% 30.14 in 10.0 mi SSW 10.4 mph - N/A   Clear
10:52 AM 53.1 °F - 37.0 °F 55% 30.13 in 10.0 mi SSW 8.1 mph - N/A   Clear
11:52 AM 57.0 °F - 37.9 °F 49% 30.10 in 10.0 mi SSW 10.4 mph - N/A   Clear
12:52 PM 61.0 °F - 37.9 °F 42% 30.07 in 10.0 mi SW 8.1 mph - N/A   Clear
1:52 PM 64.0 °F - 39.0 °F 40% 30.05 in 10.0 mi SW 10.4 mph - N/A   Clear
2:52 PM 66.0 °F - 41.0 °F 40% 30.03 in 10.0 mi SSW 11.5 mph - N/A   Clear
3:52 PM 66.0 °F - 41.0 °F 40% 30.01 in 10.0 mi SSW 12.7 mph - N/A   Clear
4:52 PM 63.0 °F - 42.1 °F 46% 30.01 in 10.0 mi South 6.9 mph - N/A   Clear
5:52 PM 54.0 °F - 41.0 °F 62% 30.01 in 10.0 mi South 9.2 mph - N/A   Clear
6:52 PM 52.0 °F - 42.1 °F 69% 30.01 in 10.0 mi South 8.1 mph - N/A   Clear
7:52 PM 54.0 °F - 44.1 °F 69% 30.01 in 10.0 mi South 10.4 mph - N/A   Clear
9:52 PM 51.1 °F - 44.1 °F 77% 30.00 in 10.0 mi South 8.1 mph - N/A   Clear
10:52 PM 52.0 °F - 44.1 °F 74% 30.00 in 10.0 mi South 10.4 mph - N/A   Clear
11:52 PM 51.1 °F - 44.1 °F 77% 29.99 in 10.0 mi South 10.4 mph - N/A   Clear